Flag for U.S.A. Weather past 2 weeks in Lexington-Fayette, Kentucky, U.S.A.

Now
57 °F

Overcast.


Feels Like: 55 °F
Forecast: 45 / 59 °F
Wind: 10 mph from Northwest

Location: Blue Grass Airport

Current Time: Oct 21, 2014 at 1:05:41 PM

Latest Report: Oct 21, 2014 at 11:54 AM


Visibility: 10 mi

Pressure: 30.05 "Hg

Humidity: 64%

Dew point: 45 °F

Location of Lexington-FayetteLocation

Historic Weather in Lexington-Fayette — Graph

°F

Lexington-Fayette temperature yesterday

Maximum temperature yesterday: 64 °F (at 4:54 PM)
Minimum temperature yesterday: 45 °F (at 12:54 AM)
Average temperature yesterday: 54 °F

Past Weeks' High & Low Weather Summary

 TemperatureHumidityPressure
High80 °F (Oct 13, 4:54 PM)90% (Oct 7, 4:54 AM)30.25 "Hg (Oct 7, 4:54 AM)
Low45 °F (Oct 20, 12:54 AM)33% (Oct 8, 3:54 PM)29.62 "Hg (Oct 14, 10:54 AM)
Average60 °F76%29.94 "Hg
* Reported Oct 6 11:54 AM — Oct 21 11:54 AM, Lexington-Fayette, Weather by CustomWeather, © 2014

Note: Actual official high and low records may vary slightly from our data, if they occured in-between our weather recording intervals... More about our weather records

Advertising

Lexington-Fayette weather history for previous 24 hours

 ConditionsComfort  
Time TempWeatherWind HumidityBarometerVisibility
11:54 AM
Oct 21
57 °FOvercast.10 mph64%30.05 "Hg10 mi
10:54 AM54 °FOvercast.12 mph74%30.04 "Hg10 mi
9:54 AM53 °FOvercast.8 mph77%30.03 "Hg10 mi
8:54 AM51 °FOvercast.6 mph86%30.01 "Hg8 mi
7:54 AM50 °FPassing clouds.7 mph86%29.99 "Hg9 mi
6:54 AM51 °FPassing clouds.7 mph83%29.97 "Hg10 mi
5:54 AM53 °FPartly cloudy.6 mph83%29.95 "Hg10 mi
4:54 AM53 °FPassing clouds.3 mph83%29.93 "Hg10 mi
3:54 AM53 °FPassing clouds.5 mph83%29.93 "Hg10 mi
2:54 AM53 °FPassing clouds.5 mph86%29.93 "Hg10 mi
1:54 AM54 °FClear.7 mph83%29.93 "Hg10 mi
12:54 AM55 °FClear.6 mph80%29.93 "Hg10 mi
11:54 PM
Oct 20
56 °FPassing clouds.10 mph81%29.94 "Hg10 mi
10:54 PM57 °FPassing clouds.12 mph78%29.94 "Hg10 mi
9:54 PM57 °FPassing clouds.9 mph72%29.93 "Hg10 mi
8:54 PM59 °FPassing clouds.10 mph67%29.93 "Hg10 mi
7:54 PM57 °FClear.8 mph72%29.93 "Hg10 mi
6:54 PM60 °FSunny.8 mph65%29.92 "Hg10 mi
5:54 PM64 °FSunny.9 mph56%29.90 "Hg10 mi
4:54 PM64 °FPassing clouds.16 mph56%29.89 "Hg10 mi
3:54 PM63 °FMostly cloudy.17 mph58%29.91 "Hg10 mi
2:54 PM62 °FOvercast.13 mph62%29.93 "Hg10 mi
1:54 PM59 °FPartly sunny.16 mph69%29.96 "Hg10 mi
Weather by CustomWeather, © 2014

See weather overviewHow to use our weather pages